TimeCDT,TemperatureF,Dew PointF,Humidity,Sea Level PressureIn,VisibilityMPH,Wind Direction,Wind SpeedMPH,Gust SpeedMPH,PrecipitationIn,Events,Conditions,WindDirDegrees,DateUTC
12:15 AM,73.4,73.4,100,29.82,5.0,SSW,12.7,-,N/A,,Clear,200,2013-08-07 05:15:00
12:35 AM,73.6,73.6,100,29.82,7.0,SSW,11.5,18.4,N/A,,Clear,200,2013-08-07 05:35:00
12:55 AM,73.4,73.4,100,29.83,5.0,SSW,11.5,-,N/A,,Clear,200,2013-08-07 05:55:00
1:15 AM,72.9,72.9,100,29.82,5.0,SSW,11.5,-,N/A,,Clear,200,2013-08-07 06:15:00
1:35 AM,73.2,73.2,100,29.81,7.0,SSW,15.0,20.7,N/A,Thunderstorm,Thunderstorm,210,2013-08-07 06:35:00
1:55 AM,73.9,73.9,100,29.80,7.0,SW,12.7,-,N/A,,Scattered Clouds,220,2013-08-07 06:55:00
2:15 AM,73.9,73.9,100,29.80,7.0,SSW,11.5,-,N/A,,Clear,210,2013-08-07 07:15:00
2:35 AM,73.0,73.0,100,29.80,5.0,SSW,11.5,-,N/A,,Clear,210,2013-08-07 07:35:00
2:55 AM,72.7,72.7,100,29.80,4.0,SSW,10.4,-,N/A,,Scattered Clouds,210,2013-08-07 07:55:00
3:15 AM,72.5,72.5,100,29.79,5.0,SSW,11.5,-,N/A,,Scattered Clouds,210,2013-08-07 08:15:00
3:35 AM,72.5,72.5,100,29.79,7.0,SW,12.7,-,N/A,,Clear,220,2013-08-07 08:35:00
3:55 AM,72.3,72.3,100,29.80,5.0,SW,11.5,-,N/A,,Scattered Clouds,220,2013-08-07 08:55:00
4:15 AM,72.5,72.5,100,29.79,4.0,SW,9.2,-,N/A,,Mostly Cloudy,230,2013-08-07 09:15:00
4:35 AM,72.5,72.5,100,29.79,2.0,SSW,10.4,-,N/A,,Mostly Cloudy,210,2013-08-07 09:35:00
4:55 AM,72.1,72.1,100,29.79,1.8,SW,10.4,-,N/A,,Overcast,220,2013-08-07 09:55:00
5:15 AM,71.6,71.6,100,29.79,5.0,SW,8.1,-,N/A,,Scattered Clouds,220,2013-08-07 10:15:00
5:35 AM,71.6,71.6,100,29.79,7.0,WSW,9.2,16.1,N/A,,Scattered Clouds,240,2013-08-07 10:35:00
5:55 AM,71.6,71.6,100,29.80,7.0,WSW,10.4,-,N/A,,Scattered Clouds,240,2013-08-07 10:55:00
6:15 AM,71.4,71.4,100,29.80,10.0,WSW,9.2,-,N/A,,Scattered Clouds,240,2013-08-07 11:15:00
6:35 AM,71.6,71.6,100,29.81,10.0,SW,9.2,-,N/A,,Clear,230,2013-08-07 11:35:00
6:55 AM,72.0,72.0,100,29.82,10.0,WSW,9.2,-,N/A,,Clear,240,2013-08-07 11:55:00
7:15 AM,72.5,72.5,100,29.82,10.0,WSW,9.2,-,N/A,,Clear,240,2013-08-07 12:15:00
7:35 AM,72.9,72.9,100,29.83,10.0,SW,8.1,-,N/A,,Scattered Clouds,230,2013-08-07 12:35:00
7:55 AM,73.4,73.4,100,29.83,10.0,WSW,9.2,-,N/A,,Mostly Cloudy,240,2013-08-07 12:55:00
8:15 AM,73.6,73.6,100,29.84,10.0,WSW,6.9,-,N/A,,Overcast,240,2013-08-07 13:15:00
8:35 AM,73.9,73.8,99,29.84,10.0,West,8.1,-,N/A,,Overcast,270,2013-08-07 13:35:00
8:55 AM,74.5,73.8,98,29.84,10.0,West,4.6,-,N/A,,Overcast,270,2013-08-07 13:55:00
9:15 AM,74.8,73.0,94,29.84,10.0,West,5.8,-,N/A,,Overcast,280,2013-08-07 14:15:00
9:35 AM,76.3,72.7,89,29.84,10.0,West,5.8,-,N/A,,Mostly Cloudy,270,2013-08-07 14:35:00
9:55 AM,77.9,66.9,69,29.84,10.0,WNW,6.9,-,N/A,,Overcast,300,2013-08-07 14:55:00
10:15 AM,77.2,66.6,70,29.85,10.0,West,6.9,-,N/A,,Mostly Cloudy,270,2013-08-07 15:15:00
10:35 AM,77.9,66.7,68,29.85,10.0,WNW,6.9,-,N/A,,Mostly Cloudy,290,2013-08-07 15:35:00
10:55 AM,79.5,66.6,64,29.86,10.0,WNW,6.9,-,N/A,,Overcast,290,2013-08-07 15:55:00
11:15 AM,80.4,64.2,58,29.86,10.0,WNW,5.8,-,N/A,,Overcast,300,2013-08-07 16:15:00
11:35 AM,81.0,62.1,52,29.87,10.0,West,8.1,-,N/A,,Overcast,280,2013-08-07 16:35:00
11:55 AM,81.5,60.8,49,29.87,10.0,West,8.1,-,N/A,,Mostly Cloudy,280,2013-08-07 16:55:00
12:15 PM,82.2,61.5,49,29.87,10.0,WNW,11.5,-,N/A,,Scattered Clouds,300,2013-08-07 17:15:00
12:35 PM,82.8,54.9,38,29.87,10.0,WNW,9.2,-,N/A,,Clear,300,2013-08-07 17:35:00
12:55 PM,82.9,59.0,44,29.87,10.0,North,9.2,-,N/A,,Clear,350,2013-08-07 17:55:00
1:15 PM,82.6,57.6,42,29.87,10.0,NNW,12.7,17.3,N/A,,Scattered Clouds,330,2013-08-07 18:15:00
1:35 PM,82.2,59.4,46,29.88,10.0,NNW,9.2,21.9,N/A,,Scattered Clouds,340,2013-08-07 18:35:00
1:55 PM,81.0,60.6,50,29.88,10.0,NNW,10.4,19.6,N/A,,Mostly Cloudy,330,2013-08-07 18:55:00
2:15 PM,81.1,59.0,47,29.88,10.0,NW,9.2,16.1,N/A,,Scattered Clouds,310,2013-08-07 19:15:00
2:35 PM,81.9,59.0,46,29.88,10.0,NNW,8.1,-,N/A,,Clear,330,2013-08-07 19:35:00
2:55 PM,82.9,57.9,42,29.88,10.0,WNW,6.9,-,N/A,,Scattered Clouds,290,2013-08-07 19:55:00
3:15 PM,79.7,61.0,53,29.88,10.0,North,8.1,-,N/A,,Mostly Cloudy,10,2013-08-07 20:15:00
3:35 PM,81.0,62.2,53,29.88,10.0,North,15.0,19.6,N/A,,Mostly Cloudy,350,2013-08-07 20:35:00
3:55 PM,79.9,62.4,55,29.89,10.0,North,12.7,18.4,N/A,,Scattered Clouds,360,2013-08-07 20:55:00
4:15 PM,77.9,63.0,60,29.90,10.0,North,10.4,24.2,N/A,,Mostly Cloudy,10,2013-08-07 21:15:00
4:35 PM,77.0,62.2,60,29.90,10.0,North,8.1,19.6,N/A,,Mostly Cloudy,350,2013-08-07 21:35:00
4:55 PM,77.4,61.2,57,29.90,10.0,North,15.0,19.6,N/A,,Scattered Clouds,350,2013-08-07 21:55:00
5:15 PM,76.8,61.0,58,29.91,10.0,North,9.2,-,N/A,,Scattered Clouds,350,2013-08-07 22:15:00
5:35 PM,75.7,60.4,59,29.91,10.0,North,11.5,17.3,N/A,,Scattered Clouds,360,2013-08-07 22:35:00
5:55 PM,75.7,59.4,57,29.91,10.0,North,13.8,17.3,N/A,,Scattered Clouds,360,2013-08-07 22:55:00
6:15 PM,75.2,59.0,57,29.92,10.0,North,10.4,-,N/A,,Clear,10,2013-08-07 23:15:00
6:35 PM,74.5,58.6,58,29.92,10.0,North,9.2,-,N/A,,Clear,360,2013-08-07 23:35:00
6:55 PM,74.1,58.3,58,29.93,10.0,North,6.9,-,N/A,,Clear,360,2013-08-07 23:55:00
7:35 PM,72.5,59.0,62,29.94,10.0,North,4.6,-,N/A,,Clear,350,2013-08-08 00:35:00
7:55 PM,71.8,59.2,64,29.95,10.0,NNW,3.5,-,N/A,,Clear,330,2013-08-08 00:55:00
8:15 PM,71.2,59.4,66,29.95,10.0,NW,3.5,-,N/A,,Clear,310,2013-08-08 01:15:00
8:35 PM,70.9,59.4,67,29.96,10.0,WNW,3.5,-,N/A,,Clear,300,2013-08-08 01:35:00
8:55 PM,71.1,59.0,66,29.97,10.0,NW,4.6,-,N/A,,Clear,310,2013-08-08 01:55:00
9:15 PM,70.5,59.2,67,29.98,10.0,NW,4.6,-,N/A,,Clear,310,2013-08-08 02:15:00
9:35 PM,69.3,59.7,72,29.98,10.0,WNW,8.1,-,N/A,,Clear,300,2013-08-08 02:35:00
9:55 PM,68.7,61.3,77,29.98,10.0,NW,5.8,-,N/A,,Clear,310,2013-08-08 02:55:00
10:15 PM,68.5,64.4,87,29.98,10.0,NW,6.9,-,N/A,,Clear,310,2013-08-08 03:15:00
10:35 PM,68.0,65.3,91,29.98,10.0,NW,6.9,-,N/A,,Clear,310,2013-08-08 03:35:00
10:55 PM,68.0,66.2,94,29.98,10.0,NW,8.1,-,N/A,,Clear,310,2013-08-08 03:55:00
11:15 PM,67.5,66.9,98,29.98,10.0,NW,6.9,-,N/A,,Clear,310,2013-08-08 04:15:00
11:35 PM,67.3,67.3,100,29.98,10.0,NW,6.9,-,N/A,,Clear,320,2013-08-08 04:35:00
11:55 PM,66.2,66.2,100,29.98,10.0,NNW,3.5,-,N/A,,Clear,330,2013-08-08 04:55:00